Asheville, NC

1:27 AM EDT on October 17, 2017 (GMT -0400)
Asheville Regional

Weather History for KAVL - August, 2013

Change the Weather History Date:

Wednesday, August 14, 2013

  Actual Average Record
Temperature  
Mean Temperature 71 °F 73 °F  
Max Temperature 77 °F 83 °F 95 °F (1999)
Min Temperature 64 °F 63 °F 52 °F (1971)
Degree Days  
Heating Degree Days 0 0  
Month to date heating degree days 0 0  
Since 1 June heating degree days 0 14  
Since 1 July heating degree days 0 0  
Cooling Degree Days 6 8  
Month to date cooling degree days 119 123  
Year to date cooling degree days 642 633  
Since 1 June cooling degree days 591 575  
Growing Degree Days 20 (Base 50)    
Moisture  
Dew Point 60 °F    
Average Humidity 72    
Maximum Humidity 93    
Minimum Humidity 50    
Precipitation  
Precipitation 0.01 in 0.14 in 1.50 in (1893)
Month to date precipitation 5.16 1.99  
Year to date precipitation 56.94 29.20  
Snow  
Snow 0.00 in 0.00 in 0.00 in ()
Month to date snowfall 0.0 0.0  
Since 1 June snowfall 0.0 0.0  
Since 1 July snowfall 0.0 0.0  
Snow Depth 0.00 in    
Sea Level Pressure  
Sea Level Pressure 29.99 in    
Wind  
Wind Speed 8 mph (NNW)    
Max Wind Speed 18 mph    
Max Gust Speed 22 mph    
Visibility 10 miles    
Events Rain    
T = Trace of Precipitation, MM = Missing Value Source: NWS Daily Summary

Daily Weather History Graph

Daily Weather History Graph

Search for Another Location

Airport or City:

Trip Planner

Search our weather history database for the weather conditions in past years. The results will help you decide how hot, cold, wet, or windy it might be!

Date:

Astronomy

Aug. 14, 2013 Rise Set
Actual Time 6:48 AM EDT 8:20 PM EDT
Civil Twilight 6:21 AM EDT 8:47 PM EDT
Nautical Twilight 5:49 AM EDT 9:19 PM EDT
Astronomical Twilight 5:15 AM EDT 9:53 PM EDT
Moon 2:28 PM EDT (8/14) 12:12 AM EDT (8/14)
Length of Visible Light 14h 25m
Length of Day
13h 31m
First Quarter, 52% of the Moon is Illuminated
Aug 14
First Quarter
Aug 20
Full
Aug 28
Last Quarter
Sep 5
New
Sep 12
First Quarter

Hourly Weather History & Observations

Time (EDT) Temp. Dew Point Humidity Pressure Visibility Wind Dir Wind Speed Gust Speed Precip Events Conditions
12:54 AM 68.0 °F 64.9 °F 90% 29.92 in 10.0 mi WNW 3.5 mph - N/A   Clear
1:54 AM 66.9 °F 64.9 °F 93% 29.93 in 10.0 mi NNW 3.5 mph - N/A   Mostly Cloudy
2:25 AM 66.2 °F 64.4 °F 94% 30.00 in 10.0 mi NNW 5.8 mph - N/A   Overcast
2:43 AM 68.0 °F 64.4 °F 88% 29.99 in 10.0 mi Calm Calm - N/A   Scattered Clouds
2:54 AM 68.0 °F 64.0 °F 87% 29.91 in 10.0 mi Calm Calm - N/A   Partly Cloudy
3:54 AM 66.9 °F 63.0 °F 87% 29.91 in 10.0 mi North 4.6 mph - N/A   Clear
4:54 AM 66.0 °F 62.1 °F 87% 29.92 in 10.0 mi NNW 4.6 mph - N/A   Clear
5:54 AM 64.9 °F 61.0 °F 87% 29.93 in 10.0 mi North 5.8 mph - N/A   Clear
6:54 AM 64.9 °F 60.1 °F 84% 29.96 in 10.0 mi NNE 4.6 mph - N/A   Clear
7:54 AM 64.0 °F 60.1 °F 87% 29.98 in 10.0 mi North 8.1 mph - N/A   Clear
8:54 AM 66.9 °F 59.0 °F 76% 29.99 in 10.0 mi North 12.7 mph - N/A   Clear
9:54 AM 68.0 °F 59.0 °F 73% 29.99 in 10.0 mi NNW 13.8 mph - N/A   Clear
10:54 AM 69.1 °F 60.1 °F 73% 30.01 in 10.0 mi North 10.4 mph - N/A   Clear
11:54 AM 73.0 °F 59.0 °F 61% 30.00 in 10.0 mi North 11.5 mph - N/A   Clear
12:54 PM 73.9 °F 57.0 °F 55% 30.00 in 10.0 mi NNW 15.0 mph - N/A   Clear
1:54 PM 73.9 °F 57.9 °F 57% 29.99 in 10.0 mi NNW 12.7 mph - N/A   Clear
2:54 PM 77.0 °F 57.0 °F 50% 29.98 in 10.0 mi NNW 11.5 mph 17.3 mph N/A   Partly Cloudy
3:54 PM 75.9 °F 55.0 °F 48% 29.97 in 10.0 mi NNW 12.7 mph 18.4 mph N/A   Partly Cloudy
4:54 PM 73.0 °F 55.9 °F 55% 29.98 in 10.0 mi NNW 11.5 mph - N/A   Overcast
5:54 PM 71.1 °F 57.9 °F 63% 29.99 in 10.0 mi NNW 11.5 mph - N/A   Overcast
6:54 PM 70.0 °F 57.0 °F 63% 30.00 in 10.0 mi NNW 8.1 mph - N/A   Overcast
7:54 PM 69.1 °F 55.9 °F 63% 30.02 in 10.0 mi North 10.4 mph - N/A   Partly Cloudy
8:54 PM 66.0 °F 57.0 °F 73% 30.04 in 10.0 mi North 4.6 mph - N/A   Partly Cloudy
9:54 PM 68.0 °F 55.9 °F 65% 30.05 in 10.0 mi North 4.6 mph - N/A   Overcast
10:54 PM 66.9 °F 57.0 °F 70% 30.07 in 10.0 mi Calm Calm - 0.00 in Rain Light Rain
11:07 PM 64.4 °F 60.8 °F 88% 30.13 in 8.0 mi Calm Calm - 0.01 in Rain Light Rain
11:54 PM 64.9 °F 57.9 °F 78% 30.08 in 10.0 mi Calm Calm - 0.01 in   Overcast